TimeCST,TemperatureF,Dew PointF,Humidity,Sea Level PressureIn,VisibilityMPH,Wind Direction,Wind SpeedMPH,Gust SpeedMPH,PrecipitationIn,Events,Conditions,WindDirDegrees,DateUTC
12:55 AM,26.2,21.6,82,30.31,10.0,Calm,Calm,-,N/A,,Clear,0,2013-01-07 06:55:00
1:55 AM,24.4,20.5,85,30.30,10.0,ENE,4.6,-,N/A,,Clear,70,2013-01-07 07:55:00
2:55 AM,24.3,20.1,84,30.30,10.0,East,4.6,-,N/A,,Clear,90,2013-01-07 08:55:00
3:55 AM,23.9,20.1,85,30.28,10.0,Calm,Calm,-,N/A,,Clear,0,2013-01-07 09:55:00
4:55 AM,23.5,20.3,87,30.27,10.0,Calm,Calm,-,N/A,,Clear,0,2013-01-07 10:55:00
5:55 AM,22.1,17.6,83,30.28,10.0,Calm,Calm,-,N/A,,Clear,0,2013-01-07 11:55:00
6:55 AM,23.7,20.1,86,30.27,10.0,Calm,Calm,-,N/A,,Clear,0,2013-01-07 12:55:00
7:55 AM,24.4,20.7,86,30.28,10.0,East,4.6,-,N/A,,Clear,90,2013-01-07 13:55:00
8:55 AM,26.8,23.7,88,30.29,10.0,Calm,Calm,-,N/A,,Clear,0,2013-01-07 14:55:00
9:55 AM,31.6,26.6,82,30.30,10.0,SE,4.6,-,N/A,,Clear,130,2013-01-07 15:55:00
10:55 AM,37.4,27.3,67,30.30,10.0,SE,5.8,-,N/A,,Scattered Clouds,140,2013-01-07 16:55:00
11:55 AM,43.0,27.3,54,30.25,10.0,South,11.5,-,N/A,,Clear,170,2013-01-07 17:55:00
12:55 PM,45.5,25.5,46,30.19,10.0,South,13.8,-,N/A,,Clear,170,2013-01-07 18:55:00
1:55 PM,48.2,26.2,42,30.16,10.0,South,11.5,-,N/A,,Partly Cloudy,180,2013-01-07 19:55:00
2:55 PM,48.9,25.3,40,30.14,10.0,South,11.5,-,N/A,,Partly Cloudy,170,2013-01-07 20:55:00
3:55 PM,50.0,25.3,38,30.23,10.0,SSE,10.4,-,N/A,,Scattered Clouds,160,2013-01-07 21:55:00
4:55 PM,47.8,25.0,41,30.12,10.0,SSE,9.2,-,0.08,,Scattered Clouds,150,2013-01-07 22:55:00
5:55 PM,43.2,26.6,52,30.13,10.0,SE,6.9,-,N/A,,Partly Cloudy,140,2013-01-07 23:55:00
6:55 PM,41.4,26.6,56,30.12,10.0,SE,8.1,-,N/A,,Scattered Clouds,130,2013-01-08 00:55:00
7:55 PM,37.4,26.2,64,30.12,10.0,SE,8.1,-,N/A,,Mostly Cloudy,130,2013-01-08 01:55:00
8:55 PM,34.0,25.9,72,30.12,10.0,SE,6.9,-,N/A,,Partly Cloudy,130,2013-01-08 02:55:00
9:55 PM,34.2,25.7,71,30.11,10.0,SSE,4.6,-,N/A,,Clear,150,2013-01-08 03:55:00
10:55 PM,34.0,26.6,74,30.10,10.0,ESE,3.5,-,N/A,,Clear,120,2013-01-08 04:55:00
11:55 PM,33.8,28.2,80,30.08,10.0,East,4.6,-,N/A,,Overcast,90,2013-01-08 05:55:00